Location: Tamazert
(32.6352°N, 5.2072°W)
Time: 07:44:55
(UTC+00:00)

Tiros 1 despin weight - Pass Details

Date: 11 October 2022
Orbit: 590 x 637 km, 48.2° (Epoch: 28 November)

Event Time Altitude Azimuth Distance (km) Brightness Sun altitude
Rises 10:26:09 0° 178° (S) 2,799 ? 43.5°
Maximum altitude 10:31:14 10° 127° (SE) 1,884 ? 44.1°
Drops below altitude 10° 10:31:57 10° 118° (ESE) 1,908 ? 44.2°
Sets 10:36:19 0° 77° (ENE) 2,820 ? 44.7°
